Weather History for Hallock, MN

Change the Weather History Date:

Wednesday, January 9, 2013

  Actual Average Record
Temperature  
Mean Temperature 24 °F -  
Max Temperature 30 °F 7 °F 46 °F (2012)
Min Temperature 19 °F -12 °F -37 °F (1993)
Degree Days  
Heating Degree Days 40    
Moisture  
Dew Point 19 °F    
Average Humidity 82    
Maximum Humidity 93    
Minimum Humidity 69    
Precipitation  
Precipitation 0.00 in - - ()
Sea Level Pressure  
Sea Level Pressure 29.99 in    
Wind  
Wind Speed 20 mph (SW)    
Max Wind Speed 31 mph    
Max Gust Speed 41 mph    
Visibility 9 miles    
Events Snow    
Averages and records for this station are not official NWS values.
T = Trace of Precipitation, MM = Missing Value Source: NWS Daily Summary

Daily Weather History Graph

Daily Weather History Graph

Search for Another Location

Airport:

Trip Planner

Search our weather history database for the weather conditions in past years. The results will help you decide how hot, cold, wet, or windy it might be!

Date:

Astronomy

Jan. 09, 2013 Rise Set
Actual Time 8:18 AM CST 4:51 PM CST
Civil Twilight 7:42 AM CST 5:27 PM CST
Nautical Twilight 7:02 AM CST 6:07 PM CST
Astronomical Twilight 6:24 AM CST 6:45 PM CST
Moon 5:59 AM CST (1/9) 2:54 PM CST (1/9)
Length of Visible Light 9h 45m
Length of Day
8h 32m
Waning Crescent, 6% of the Moon is Illuminated
Jan 9
Waning Crescent
Jan 11
New
Jan 18
First Quarter
Jan 26
Full
Feb 3
Last Quarter

Hourly Weather History & Observations

Time (CST) Temp. Windchill Dew Point Humidity Pressure Visibility Wind Dir Wind Speed Gust Speed Precip Events Conditions
12:14 AM 30.2 °F 15.7 °F 26.6 °F 86% 29.61 in 1.8 mi WNW 27.6 mph 40.3 mph N/A Snow Light Snow
12:34 AM 28.4 °F 14.4 °F 26.6 °F 93% 29.61 in 5.0 mi West 23.0 mph 31.1 mph N/A Snow Light Snow
12:54 AM 28.4 °F 13.0 °F 24.8 °F 86% 29.62 in 2.0 mi WNW 28.8 mph 39.1 mph N/A   Overcast
1:14 AM 28.4 °F 12.7 °F 24.8 °F 86% 29.64 in 1.8 mi WNW 29.9 mph 41.4 mph N/A Snow Light Snow
1:34 AM 28.4 °F 13.3 °F 24.8 °F 86% 29.65 in 1.8 mi WNW 27.6 mph 36.8 mph N/A Snow Light Snow
2:14 AM 28.4 °F 13.3 °F 24.8 °F 86% 29.69 in 2.0 mi WNW 27.6 mph 36.8 mph N/A   Overcast
2:34 AM 28.4 °F 13.0 °F 23.0 °F 80% 29.72 in 2.0 mi WNW 28.8 mph 38.0 mph N/A   Overcast
2:54 AM 26.6 °F 10.0 °F 23.0 °F 86% 29.74 in 2.5 mi WNW 31.1 mph 34.5 mph N/A   Overcast
3:14 AM 26.6 °F 11.1 °F 21.2 °F 80% 29.75 in 2.5 mi WNW 26.5 mph 39.1 mph N/A Snow Light Snow
3:34 AM 26.6 °F 11.4 °F 21.2 °F 80% 29.78 in 10.0 mi West 25.3 mph 32.2 mph N/A   Overcast
3:54 AM 26.6 °F 11.1 °F 21.2 °F 80% 29.79 in 10.0 mi West 26.5 mph 33.4 mph N/A   Overcast
4:14 AM 26.6 °F 11.7 °F 21.2 °F 80% 29.81 in 10.0 mi West 24.2 mph 31.1 mph N/A   Overcast
4:34 AM 26.6 °F 12.4 °F 21.2 °F 80% 29.83 in 10.0 mi WNW 21.9 mph 31.1 mph N/A   Overcast
4:54 AM 26.6 °F 12.0 °F 21.2 °F 80% 29.85 in 10.0 mi WNW 23.0 mph 29.9 mph N/A   Overcast
5:13 AM 24.8 °F 9.6 °F 19.4 °F 80% 29.86 in 10.0 mi WNW 23.0 mph 28.8 mph N/A   Overcast
5:34 AM 24.8 °F 10.7 °F 19.4 °F 80% 29.89 in 10.0 mi WNW 19.6 mph 28.8 mph N/A   Overcast
5:54 AM 24.8 °F 10.0 °F 19.4 °F 80% 29.89 in 10.0 mi WNW 21.9 mph 25.3 mph N/A   Overcast
6:13 AM 24.8 °F 10.7 °F 19.4 °F 80% 29.91 in 10.0 mi WNW 19.6 mph 27.6 mph N/A   Overcast
6:34 AM 24.8 °F 10.3 °F 19.4 °F 80% 29.93 in 10.0 mi WNW 20.7 mph 26.5 mph N/A   Overcast
7:13 AM 24.8 °F 11.9 °F 19.4 °F 80% 29.97 in 10.0 mi WNW 16.1 mph 23.0 mph N/A   Overcast
7:34 AM 24.8 °F 11.1 °F 19.4 °F 80% 29.99 in 10.0 mi WNW 18.4 mph - N/A   Overcast
7:54 AM 23.0 °F 10.1 °F 17.6 °F 80% 30.00 in 10.0 mi West 15.0 mph - N/A   Overcast
8:34 AM 23.0 °F 10.6 °F 17.6 °F 80% 30.02 in 10.0 mi West 13.8 mph - N/A   Overcast
8:54 AM 23.0 °F 9.2 °F 17.6 °F 80% 30.03 in 10.0 mi WNW 17.3 mph - N/A   Overcast
9:14 AM 23.0 °F 9.6 °F 17.6 °F 80% 30.06 in 10.0 mi West 16.1 mph - N/A   Overcast
9:34 AM 23.0 °F 8.7 °F 17.6 °F 80% 30.07 in 10.0 mi West 18.4 mph - N/A   Overcast
9:54 AM 24.8 °F 11.5 °F 17.6 °F 74% 30.09 in 10.0 mi WNW 17.3 mph 23.0 mph N/A   Overcast
10:13 AM 24.8 °F 11.9 °F 17.6 °F 74% 30.08 in 10.0 mi WNW 16.1 mph - N/A   Mostly Cloudy
10:34 AM 24.8 °F 14.0 °F 17.6 °F 74% 30.10 in 10.0 mi WNW 11.5 mph - N/A   Scattered Clouds
10:54 AM 24.8 °F 13.4 °F 15.8 °F 69% 30.10 in 10.0 mi WNW 12.7 mph - N/A   Clear
11:14 AM 23.0 °F 13.1 °F 15.8 °F 74% 30.11 in 10.0 mi WNW 9.2 mph - N/A   Clear
11:54 AM 23.0 °F 14.7 °F 17.6 °F 80% 30.11 in 10.0 mi West 6.9 mph - N/A   Clear
12:14 PM 23.0 °F 13.1 °F 17.6 °F 80% 30.11 in 10.0 mi West 9.2 mph - N/A   Clear
12:34 PM 24.8 °F 15.3 °F 17.6 °F 74% 30.10 in 10.0 mi West 9.2 mph - N/A   Clear
12:54 PM 24.8 °F 15.3 °F 17.6 °F 74% 30.11 in 10.0 mi West 9.2 mph - N/A   Clear
1:14 PM 24.8 °F 14.6 °F 17.6 °F 74% 30.12 in 10.0 mi West 10.4 mph - N/A   Mostly Cloudy
1:34 PM 24.8 °F 19.1 °F 19.4 °F 80% 30.12 in 10.0 mi WSW 4.6 mph - N/A   Mostly Cloudy
1:54 PM 24.8 °F 17.9 °F 17.6 °F 74% 30.11 in 10.0 mi SW 5.8 mph - N/A   Scattered Clouds
2:14 PM 24.8 °F 17.9 °F 17.6 °F 74% 30.12 in 10.0 mi WSW 5.8 mph - N/A   Scattered Clouds
2:34 PM 24.8 °F 19.1 °F 17.6 °F 74% 30.14 in 10.0 mi SW 4.6 mph - N/A   Overcast
2:54 PM 24.8 °F 20.5 °F 17.6 °F 74% 30.14 in 10.0 mi South 3.5 mph - N/A   Overcast
3:14 PM 24.8 °F 17.9 °F 19.4 °F 80% 30.14 in 10.0 mi SSE 5.8 mph - N/A   Overcast
3:34 PM 24.8 °F 15.3 °F 19.4 °F 80% 30.15 in 10.0 mi South 9.2 mph - N/A   Overcast
3:54 PM 24.8 °F 16.1 °F 19.4 °F 80% 30.14 in 10.0 mi South 8.1 mph - N/A   Overcast
4:14 PM 24.8 °F 16.9 °F 21.2 °F 86% 30.14 in 10.0 mi SSE 6.9 mph - N/A   Overcast
4:34 PM 24.8 °F 15.3 °F 21.2 °F 86% 30.13 in 10.0 mi SSE 9.2 mph - N/A   Overcast
4:54 PM 24.8 °F 15.3 °F 21.2 °F 86% 30.12 in 10.0 mi SSE 9.2 mph - N/A   Overcast
5:14 PM 24.8 °F 12.4 °F 21.2 °F 86% 30.13 in 10.0 mi South 15.0 mph - N/A   Overcast
5:34 PM 24.8 °F 11.9 °F 21.2 °F 86% 30.12 in 10.0 mi South 16.1 mph - N/A   Overcast
5:53 PM 24.8 °F 12.4 °F 21.2 °F 86% 30.11 in 10.0 mi SSE 15.0 mph - N/A   Overcast
6:14 PM 23.0 °F 11.1 °F 19.4 °F 86% 30.09 in 10.0 mi SSE 12.7 mph - N/A   Scattered Clouds
6:34 PM 23.0 °F 9.6 °F 19.4 °F 86% 30.08 in 10.0 mi SSE 16.1 mph - N/A   Clear
6:54 PM 21.2 °F 6.4 °F 19.4 °F 93% 30.08 in 10.0 mi SSE 18.4 mph - N/A   Clear
7:13 PM 21.2 °F 6.8 °F 19.4 °F 93% 30.07 in 10.0 mi SSE 17.3 mph - N/A   Clear
7:34 PM 21.2 °F 7.3 °F 19.4 °F 93% 30.06 in 10.0 mi SSE 16.1 mph - N/A   Clear
7:54 PM 21.2 °F 8.3 °F 19.4 °F 93% 30.06 in 10.0 mi SE 13.8 mph - N/A   Clear
8:13 PM 21.2 °F 8.9 °F 17.6 °F 86% 30.05 in 10.0 mi SE 12.7 mph - N/A   Clear
8:34 PM 21.2 °F 8.3 °F 17.6 °F 86% 30.05 in 10.0 mi SE 13.8 mph - N/A   Clear
8:54 PM 19.4 °F 6.6 °F 17.6 °F 93% 30.04 in 10.0 mi SE 12.7 mph - N/A   Clear
9:14 PM 19.4 °F 5.5 °F 17.6 °F 93% 30.03 in 10.0 mi SSE 15.0 mph - N/A   Clear
9:34 PM 21.2 °F 8.3 °F 17.6 °F 86% 30.02 in 10.0 mi SE 13.8 mph - N/A   Clear
9:54 PM 21.2 °F 7.3 °F 17.6 °F 86% 30.01 in 10.0 mi SSE 16.1 mph - N/A   Clear
10:14 PM 23.0 °F 9.2 °F 17.6 °F 80% 30.01 in 10.0 mi SSE 17.3 mph - N/A   Clear
10:34 PM 21.2 °F 7.3 °F 17.6 °F 86% 30.00 in 10.0 mi SSE 16.1 mph - N/A   Clear
10:54 PM 21.2 °F 8.3 °F 17.6 °F 86% 29.99 in 10.0 mi SSE 13.8 mph - N/A   Clear
11:14 PM 21.2 °F 6.8 °F 17.6 °F 86% 29.99 in 10.0 mi SSE 17.3 mph - N/A   Clear
11:34 PM 21.2 °F 6.8 °F 17.6 °F 86% 29.99 in 10.0 mi SSE 17.3 mph - N/A   Clear
11:54 PM 23.0 °F 8.7 °F 17.6 °F 80% 29.97 in 10.0 mi SSE 18.4 mph - N/A   Clear